25/11/2011,00:00:12,   0.0,  6.7,  246,+15.4,  95.8,   61.1,  +33.0, +118.1,  +31.9,+1100.00,5C
25/11/2011,00:00:38,   0.0,  7.2,  272,+15.4,  95.9,   60.8,  +32.8, +118.6,  +32.3,+1100.00,6D
25/11/2011,00:00:56,   0.0,  5.9,  268,+15.4,  95.8,   60.7,  +32.9, +117.8,  +32.3,+1100.00,77
25/11/2011,00:01:14,   0.0,  6.2,  265,+15.3,  95.8,   60.7,  +32.8, +118.0,  +32.6,+1100.00,63
25/11/2011,00:01:32,   0.0,  4.8,  252,+15.3,  95.7,   60.8,  +32.7, +117.8,  +32.7,+1100.00,6A
25/11/2011,00:01:58,   0.0,  6.5,  284,+15.3,  95.7,   60.3,  +32.6, +117.9,  +32.6,+1100.00,70
25/11/2011,00:02:16,   0.0,  4.3,  259,+15.3,  95.7,   60.3,  +32.4, +117.1,  +32.7,+1100.00,60
25/11/2011,00:02:33,   0.0,  2.9,  240,+15.3,  95.8,   60.2,  +32.5, +117.8,  +32.2,+1100.00,5C
25/11/2011,00:02:51,   0.0,  5.3,  247,+15.2,  95.6,   59.9,  +32.4, +117.4,  +32.8,+1100.00,6D
25/11/2011,00:03:17,   0.0,  5.6,  245,+15.2,  95.7,   59.8,  +32.5, +117.5,  +32.7,+1100.00,72
25/11/2011,00:03:35,   0.0,  4.6,  261,+15.2,  95.6,   59.9,  +32.4, +117.5,  +32.5,+1100.00,6C
25/11/2011,00:03:53,   0.0,  6.5,  265,+15.2,  95.6,   59.5,  +32.4, +117.6,  +32.8,+1100.00,71
25/11/2011,00:04:18,   0.0,  4.8,  259,+15.2,  95.6,   59.6,  +32.4, +117.7,  +32.5,+1100.00,76
25/11/2011,00:04:36,   0.0,  4.2,  283,+15.1,  95.6,   59.1,  +32.1, +117.2,  +32.6,+1100.00,60
25/11/2011,00:04:54,   0.0,  4.7,  267,+15.2,  95.8,   60.0,  +32.2, +117.5,  +33.0,+1100.00,60
25/11/2011,00:05:12,   0.0,  4.8,  260,+15.2,  95.7,   59.4,  +32.2, +117.9,  +32.9,+1100.00,6C
25/11/2011,00:05:38,   0.0,  3.7,  272,+15.4,  95.9,   60.9,  +32.6, +118.0,  +32.7,+1100.00,70
25/11/2011,00:05:56,   0.0,  4.7,  252,+15.4,  95.9,   61.4,  +32.8, +117.9,  +32.3,+1100.00,71
25/11/2011,00:06:14,   0.0,  4.0,  267,+15.5,  96.1,   62.9,  +33.2, +118.6,  +32.7,+1100.00,68
25/11/2011,00:06:32,   0.0,  4.0,  263,+15.6,  96.3,   63.6,  +33.5, +118.8,  +32.2,+1100.00,65
25/11/2011,00:06:58,   0.0,  3.4,  286,+15.7,  96.6,   64.5,  +33.7, +119.5,  +31.9,+1100.00,7F
25/11/2011,00:07:16,   0.0,  3.3,  288,+15.8,  96.6,   65.1,  +33.9, +119.5,  +31.7,+1100.00,79
25/11/2011,00:07:33,   0.0,  5.8,  259,+15.9,  96.8,   66.1,  +34.1, +119.9,  +31.3,+1100.00,7A
25/11/2011,00:07:51,   0.0,  3.8,  266,+15.9,  96.8,   66.1,  +34.2, +119.6,  +31.2,+1100.00,73
25/11/2011,00:08:17,   0.0,  4.7,  261,+16.0,  97.0,   66.5,  +34.4, +119.8,  +31.8,+1100.00,70
25/11/2011,00:08:35,   0.0,  4.6,  273,+15.8,  96.9,   66.3,  +34.1, +119.7,  +31.5,+1100.00,78
25/11/2011,00:08:53,   0.0,  4.7,  261,+15.8,  96.9,   65.5,  +34.0, +119.3,  +31.6,+1100.00,73
25/11/2011,00:09:18,   0.0,  4.0,  277,+15.7,  96.8,   65.2,  +33.8, +119.4,  +31.9,+1100.00,7B
25/11/2011,00:09:36,   0.0,  6.0,  260,+15.7,  96.7,   64.4,  +33.6, +119.0,  +31.8,+1100.00,6E
25/11/2011,00:09:54,   0.0,  3.9,  272,+15.7,  96.7,   64.3,  +33.6, +119.3,  +31.8,+1100.00,79
25/11/2011,00:10:12,   0.0,  3.7,  271,+15.6,  96.7,   63.9,  +33.4, +119.2,  +32.0,+1100.00,62
25/11/2011,00:10:38,   0.0,  3.8,  255,+15.6,  96.7,   63.7,  +33.4, +119.7,  +32.5,+1100.00,75
25/11/2011,00:10:56,   0.0,  3.6,  260,+15.5,  96.7,   63.3,  +33.3, +119.1,  +32.6,+1100.00,64
25/11/2011,00:11:14,   0.0,  4.0,  243,+15.5,  96.7,   63.2,  +33.3, +118.6,  +32.3,+1100.00,5B
25/11/2011,00:11:32,   0.0,  4.7,  259,+15.5,  96.8,   63.8,  +33.3, +118.8,  +32.3,+1100.00,72
25/11/2011,00:11:58,   0.0,  3.1,  258,+15.5,  96.8,   63.6,  +33.4, +119.1,  +32.1,+1100.00,69
25/11/2011,00:12:16,   0.0,  3.5,  284,+15.4,  96.6,   62.6,  +33.0, +118.5,  +32.4,+1100.00,65
25/11/2011,00:12:33,   0.0,  4.0,  262,+15.3,  96.6,   62.5,  +33.0, +118.2,  +32.0,+1100.00,53
25/11/2011,00:12:51,   0.0,  4.0,  261,+15.3,  96.6,   61.8,  +33.0, +118.6,  +32.4,+1100.00,5C
25/11/2011,00:13:17,   0.0,  5.4,  258,+15.1,  96.4,   60.5,  +32.4, +118.5,  +32.6,+1100.00,66
25/11/2011,00:13:35,   0.0,  3.9,  254,+15.0,  96.3,   60.3,  +32.1, +117.7,  +32.7,+1100.00,60
25/11/2011,00:13:53,   0.0,  3.4,  259,+15.1,  96.3,   59.8,  +31.9, +117.5,  +32.9,+1100.00,75
25/11/2011,00:14:18,   0.0,  2.5,  252,+14.9,  96.1,   59.4,  +32.0, +117.5,  +33.0,+1100.00,61
25/11/2011,00:14:36,   0.0,  3.4,  263,+14.9,  96.0,   58.8,  +31.7, +117.1,  +33.3,+1100.00,6A
25/11/2011,00:14:54,   0.0,  3.4,  233,+14.9,  96.1,   59.1,  +31.8, +117.2,  +33.4,+1100.00,65
25/11/2011,00:15:12,   0.0,  3.4,  282,+14.8,  96.0,   58.4,  +31.5, +116.6,  +33.2,+1100.00,62
25/11/2011,00:15:38,   0.0,  4.6,  278,+14.8,  96.1,   58.5,  +31.6, +116.6,  +33.2,+1100.00,75
25/11/2011,00:15:56,   0.0,  4.7,  244,+14.7,  96.1,   57.8,  +31.3, +116.5,  +33.2,+1100.00,6C
25/11/2011,00:16:14,   0.0,  5.5,  245,+14.7,  96.2,   57.7,  +31.3, +116.2,  +33.0,+1100.00,62
25/11/2011,00:16:32,   0.0,  6.1,  252,+14.9,  96.5,   59.6,  +31.9, +116.1,  +33.0,+1100.00,68
25/11/2011,00:16:58,   0.0,  7.1,  256,+14.7,  96.4,   57.7,  +31.6, +116.3,  +32.8,+1100.00,77
25/11/2011,00:17:16,   0.0,  3.6,  296,+14.8,  96.4,   58.5,  +31.7, +116.9,  +32.9,+1100.00,7F
25/11/2011,00:17:33,   0.0,  2.7,  279,+14.8,  96.4,   58.8,  +31.9, +117.1,  +32.6,+1100.00,7A
25/11/2011,00:17:51,   0.0,  5.3,  258,+14.8,  96.3,   58.7,  +31.8, +117.2,  +32.6,+1100.00,74
25/11/2011,00:18:17,   0.0,  4.8,  257,+14.8,  96.5,   58.8,  +31.9, +117.7,  +32.6,+1100.00,83
25/11/2011,00:18:35,   0.0,  3.5,  257,+14.9,  96.5,   59.0,  +32.0, +117.4,  +32.5,+1100.00,6D
25/11/2011,00:18:53,   0.0,  4.0,  266,+14.9,  96.5,   58.9,  +32.0, +117.9,  +32.6,+1100.00,77
25/11/2011,00:19:18,   0.0,  6.4,  244,+14.8,  96.6,   59.0,  +32.1, +118.2,  +32.8,+1100.00,70
25/11/2011,00:19:36,   0.0,  5.3,  258,+14.8,  96.5,   58.6,  +31.7, +117.5,  +32.6,+1100.00,7C
25/11/2011,00:19:54,   0.0,  5.6,  258,+14.8,  96.4,   58.4,  +31.6, +117.8,  +33.2,+1100.00,7B
25/11/2011,00:20:12,   0.0,  6.3,  272,+14.8,  96.5,   58.2,  +31.7, +117.5,  +33.1,+1100.00,63
25/11/2011,00:20:38,   0.0,  6.2,  260,+14.8,  96.4,   57.9,  +31.7, +118.4,  +32.6,+1100.00,70
25/11/2011,00:20:56,   0.0,  4.2,  279,+14.9,  96.4,   58.8,  +31.7, +118.2,  +32.8,+1100.00,79
25/11/2011,00:21:14,   0.0,  4.0,  263,+14.8,  96.3,   58.2,  +31.7, +118.0,  +33.3,+1100.00,5D
25/11/2011,00:21:32,   0.0,  3.3,  223,+14.8,  96.3,   58.2,  +31.8, +117.9,  +32.7,+1100.00,67
25/11/2011,00:21:58,   0.0,  2.5,  261,+14.7,  96.2,   57.5,  +31.6, +117.8,  +33.6,+1100.00,6F
25/11/2011,00:22:16,   0.0,  3.0,  265,+14.7,  96.4,   58.2,  +31.5, +117.5,  +33.0,+1100.00,60
25/11/2011,00:22:33,   0.0,  5.1,  257,+14.7,  96.3,   57.3,  +31.6, +117.8,  +33.0,+1100.00,66
25/11/2011,00:22:51,   0.0,  5.7,  243,+14.7,  96.2,   56.6,  +31.1, +117.1,  +33.0,+1100.00,5C
25/11/2011,00:23:17,   0.0,  4.6,  285,+14.5,  96.1,   56.2,  +30.9, +117.1,  +33.7,+1100.00,6A
25/11/2011,00:23:35,   0.0,  2.8,  255,+14.4,  95.9,   55.9,  +30.9, +116.3,  +33.3,+1100.00,70
25/11/2011,00:23:53,   0.0,  4.3,  260,+14.4,  95.9,   55.2,  +30.6, +116.3,  +33.7,+1100.00,63
25/11/2011,00:24:18,   0.0,  2.9,  265,+14.2,  95.8,   54.9,  +30.4, +115.9,  +33.7,+1100.00,74
25/11/2011,00:24:36,   0.0,  3.5,  252,+14.3,  95.8,   54.5,  +30.2, +115.6,  +33.7,+1100.00,65
25/11/2011,00:24:54,   0.0,  6.6,  251,+14.3,  95.8,   54.4,  +30.3, +115.6,  +33.5,+1100.00,66
25/11/2011,00:25:12,   0.0,  4.1,  248,+14.2,  95.9,   54.2,  +30.2, +115.5,  +33.4,+1100.00,5B
25/11/2011,00:25:38,   0.0,  5.4,  226,+14.2,  96.0,   54.3,  +30.2, +115.4,  +33.6,+1100.00,5D
25/11/2011,00:25:56,   0.0,  4.3,  267,+14.2,  96.0,   54.4,  +30.1, +115.2,  +33.8,+1100.00,60
25/11/2011,00:26:14,   0.0,  5.5,  251,+14.2,  96.0,   54.3,  +30.2, +115.2,  +33.6,+1100.00,55
25/11/2011,00:26:32,   0.0,  3.8,  246,+14.2,  95.9,   54.3,  +30.2, +115.4,  +33.4,+1100.00,62
25/11/2011,00:26:58,   0.0,  3.5,  257,+14.2,  95.9,   53.9,  +30.1, +115.0,  +34.0,+1100.00,66
25/11/2011,00:27:16,   0.0,  4.0,  260,+14.1,  95.8,   54.1,  +30.1, +115.0,  +33.5,+1100.00,52
25/11/2011,00:27:33,   0.0,  3.8,  318,+14.2,  95.8,   53.9,  +30.1, +114.8,  +33.3,+1100.00,69
25/11/2011,00:27:51,   0.0,  4.7,  285,+14.2,  95.7,   53.7,  +29.9, +114.6,  +33.4,+1100.00,78
25/11/2011,00:28:17,   0.0,  5.6,  259,+14.1,  95.7,   53.7,  +30.1, +115.3,  +33.6,+1100.00,6B
25/11/2011,00:28:35,   0.0,  6.2,  258,+14.1,  95.8,   53.7,  +30.1, +115.3,  +33.9,+1100.00,6B
25/11/2011,00:28:52,   0.0,  4.8,  287,+14.1,  95.8,   53.6,  +29.9, +114.8,  +33.8,+1100.00,82
25/11/2011,00:29:18,   0.0,  3.2,  255,+14.1,  95.8,   53.5,  +30.0, +115.0,  +33.5,+1100.00,5D
25/11/2011,00:29:36,   0.0,  6.1,  254,+14.1,  95.7,   53.6,  +29.8, +114.8,  +33.2,+1100.00,72
25/11/2011,00:29:54,   0.0,  5.4,  249,+14.1,  95.7,   53.8,  +30.1, +114.7,  +33.6,+1100.00,6E
25/11/2011,00:30:12,   0.0,  4.3,  267,+14.2,  95.8,   53.3,  +30.1, +114.6,  +33.3,+1100.00,57
25/11/2011,00:30:38,   0.0,  6.3,  245,+14.1,  95.7,   53.3,  +29.8, +114.9,  +33.6,+1100.00,70
25/11/2011,00:30:56,   0.0,  5.9,  236,+14.3,  96.0,   55.2,  +30.7, +115.9,  +33.1,+1100.00,65
25/11/2011,00:31:14,   0.0,  4.6,  254,+14.3,  96.1,   55.5,  +30.6, +115.8,  +33.0,+1100.00,5D
25/11/2011,00:31:32,   0.0,  5.8,  237,+14.3,  96.0,   55.0,  +30.6, +115.5,  +33.1,+1100.00,59
25/11/2011,00:31:58,   0.0,  5.0,  264,+14.1,  95.8,   54.0,  +30.1, +115.2,  +33.5,+1100.00,59
25/11/2011,00:32:16,   0.0,  5.7,  260,+14.1,  95.8,   53.7,  +30.0, +115.0,  +33.3,+1100.00,58
25/11/2011,00:32:33,   0.0,  4.4,  259,+14.1,  95.8,   53.2,  +29.9, +114.8,  +33.6,+1100.00,71
25/11/2011,00:32:51,   0.0,  4.5,  251,+14.1,  95.7,   53.1,  +29.8, +115.1,  +33.7,+1100.00,62
25/11/2011,00:33:17,   0.0,  5.0,  275,+14.1,  95.6,   53.1,  +30.1, +114.8,  +33.3,+1100.00,59
25/11/2011,00:33:35,   0.0,  7.0,  257,+14.0,  95.6,   53.2,  +29.8, +114.6,  +33.5,+1100.00,6A
25/11/2011,00:33:53,   0.0,  4.3,  242,+14.2,  95.8,   53.7,  +30.1, +115.3,  +33.7,+1100.00,5E
25/11/2011,00:34:18,   0.0,  3.9,  252,+14.3,  96.0,   54.9,  +30.4, +115.3,  +33.2,+1100.00,61
25/11/2011,00:34:36,   0.0,  4.9,  267,+14.3,  95.9,   54.9,  +30.3, +115.1,  +33.3,+1100.00,6E
25/11/2011,00:34:54,   0.0,  5.1,  251,+14.3,  95.9,   55.2,  +30.4, +115.3,  +33.1,+1100.00,5B
25/11/2011,00:35:12,   0.0,  5.9,  257,+14.3,  95.9,   55.0,  +30.3, +115.4,  +33.2,+1100.00,63
25/11/2011,00:35:38,   0.0,  4.2,  251,+14.6,  96.3,   57.5,  +31.3, +116.5,  +33.0,+1100.00,63
25/11/2011,00:35:56,   0.0,  5.0,  266,+14.8,  96.6,   59.4,  +31.7, +116.5,  +32.9,+1100.00,7A
25/11/2011,00:36:14,   0.0,  4.0,  273,+14.8,  96.6,   59.3,  +31.7, +116.3,  +32.2,+1100.00,68
25/11/2011,00:36:32,   0.0,  4.2,  261,+14.8,  96.6,   59.3,  +31.7, +116.3,  +32.1,+1100.00,66
25/11/2011,00:36:58,   0.0,  4.1,  292,+14.7,  96.3,   58.3,  +31.6, +116.3,  +32.5,+1100.00,6F
25/11/2011,00:37:16,   0.0,  6.3,  253,+14.7,  96.3,   58.1,  +31.6, +116.3,  +32.2,+1100.00,66
25/11/2011,00:37:33,   0.0,  5.9,  242,+14.6,  96.3,   57.4,  +31.3, +116.3,  +32.7,+1100.00,6B
25/11/2011,00:37:51,   0.0,  3.2,  252,+14.5,  96.1,   56.9,  +31.1, +115.6,  +32.6,+1100.00,63
25/11/2011,00:38:17,   0.0,  3.7,  275,+14.4,  96.0,   56.2,  +30.9, +115.4,  +32.6,+1100.00,6C
25/11/2011,00:38:35,   0.0,  4.6,  258,+14.3,  95.9,   55.8,  +30.8, +115.8,  +32.6,+1100.00,7C
25/11/2011,00:38:53,   0.0,  4.5,  244,+14.3,  95.9,   55.3,  +30.7, +115.3,  +32.9,+1100.00,6E
25/11/2011,00:39:18,   0.0,  2.7,  264,+14.2,  95.8,   54.8,  +30.5, +115.0,  +32.7,+1100.00,6D
25/11/2011,00:39:36,   0.0,  3.4,  292,+14.2,  95.7,   54.3,  +30.3, +114.6,  +33.1,+1100.00,64
25/11/2011,00:39:54,   0.0,  3.4,  245,+14.2,  95.6,   54.5,  +30.3, +114.5,  +32.7,+1100.00,67
25/11/2011,00:40:12,   0.0,  5.2,  257,+14.2,  95.6,   54.3,  +30.4, +114.4,  +33.0,+1100.00,54
25/11/2011,00:40:38,   0.0,  6.4,  257,+14.2,  95.7,   54.0,  +30.3, +114.5,  +32.7,+1100.00,63
25/11/2011,00:40:56,   0.0,  6.2,  274,+14.3,  95.9,   54.0,  +30.3, +114.5,  +32.7,+1100.00,63
25/11/2011,00:41:14,   0.0,  6.0,  259,+14.1,  95.8,   53.9,  +30.2, +114.5,  +32.9,+1100.00,65
25/11/2011,00:41:32,   0.0,  3.8,  271,+14.1,  95.9,   54.1,  +30.2, +114.2,  +32.5,+1100.00,57
25/11/2011,00:41:58,   0.0,  4.6,  256,+14.0,  95.8,   53.4,  +30.2, +114.3,  +33.2,+1100.00,60
25/11/2011,00:42:16,   0.0,  5.4,  246,+14.0,  95.6,   53.3,  +30.1, +114.0,  +32.7,+1100.00,56
25/11/2011,00:42:33,   0.0,  2.8,  238,+14.0,  95.6,   52.6,  +29.9, +113.5,  +32.6,+1100.00,6C
25/11/2011,00:42:51,   0.0,  2.7,  322,+13.9,  95.4,   52.4,  +29.8, +113.7,  +33.4,+1100.00,69
25/11/2011,00:43:17,   0.0,  4.2,  274,+13.9,  95.4,   52.2,  +29.6, +114.2,  +33.4,+1100.00,67
25/11/2011,00:43:35,   0.0,  4.7,  264,+13.9,  95.4,   52.1,  +29.5, +113.4,  +32.9,+1100.00,6E
25/11/2011,00:43:52,   0.0,  3.5,  271,+13.8,  95.5,   51.7,  +29.5, +113.2,  +33.2,+1100.00,65
25/11/2011,00:44:18,   0.0,  5.2,  287,+13.8,  95.5,   51.5,  +29.3, +113.2,  +33.4,+1100.00,6C
25/11/2011,00:44:36,   0.0,  4.0,  280,+13.9,  95.7,   51.9,  +29.6, +113.3,  +32.9,+1100.00,71
25/11/2011,00:44:54,   0.0,  4.3,  253,+13.9,  95.6,   52.2,  +29.6, +113.6,  +33.0,+1100.00,68
25/11/2011,00:45:12,   0.0,  3.4,  261,+13.8,  95.4,   51.5,  +29.2, +112.8,  +32.8,+1100.00,65
25/11/2011,00:45:38,   0.0,  5.5,  270,+13.7,  95.4,   51.1,  +29.2, +112.6,  +32.9,+1100.00,6A
25/11/2011,00:45:56,   0.0,  3.2,  282,+13.7,  95.5,   51.1,  +29.2, +112.4,  +33.2,+1100.00,61
25/11/2011,00:46:14,   0.0,  4.4,  254,+13.7,  95.5,   50.9,  +29.3, +112.8,  +33.0,+1100.00,68
25/11/2011,00:46:32,   0.0,  6.3,  249,+13.7,  95.5,   51.1,  +29.4, +113.0,  +33.1,+1100.00,61
25/11/2011,00:46:58,   0.0,  3.0,  251,+13.7,  95.6,   50.9,  +29.2, +113.1,  +33.4,+1100.00,66
25/11/2011,00:47:16,   0.0,  3.7,  264,+13.7,  95.6,   51.1,  +29.0, +112.7,  +33.4,+1100.00,68
25/11/2011,00:47:33,   0.0,  5.9,  273,+13.7,  95.6,   50.8,  +29.0, +113.1,  +33.5,+1100.00,6D
25/11/2011,00:47:51,   0.0,  5.7,  243,+13.6,  95.5,   50.8,  +29.0, +113.6,  +33.4,+1100.00,6A
25/11/2011,00:48:17,   0.0,  4.2,  240,+13.7,  95.6,   50.5,  +29.0, +113.1,  +33.4,+1100.00,5E
25/11/2011,00:48:35,   0.0,  5.4,  252,+13.7,  95.6,   50.7,  +29.0, +113.2,  +33.7,+1100.00,6A
25/11/2011,00:48:53,   0.0,  5.4,  243,+13.6,  95.6,   50.6,  +29.0, +113.2,  +33.7,+1100.00,68
25/11/2011,00:49:18,   0.0,  7.1,  257,+13.7,  95.7,   50.6,  +29.1, +113.5,  +33.7,+1100.00,74
25/11/2011,00:49:36,   0.0,  6.7,  231,+13.6,  95.6,   50.4,  +28.9, +112.6,  +33.8,+1100.00,75
25/11/2011,00:49:54,   0.0,  6.1,  226,+13.6,  95.5,   50.7,  +29.0, +113.0,  +33.5,+1100.00,65
25/11/2011,00:50:12,   0.0,  4.8,  260,+13.6,  95.5,   50.3,  +28.9, +112.7,  +33.4,+1100.00,63
25/11/2011,00:50:38,   0.0,  6.7,  285,+13.6,  95.5,   50.2,  +28.9, +112.9,  +33.5,+1100.00,75
25/11/2011,00:50:56,   0.0,  4.7,  281,+13.6,  95.4,   50.3,  +28.9, +112.6,  +33.6,+1100.00,6D
25/11/2011,00:51:14,   0.0,  5.2,  261,+13.7,  95.4,   50.1,  +29.0, +113.0,  +33.5,+1100.00,53
25/11/2011,00:51:32,   0.0,  4.3,  263,+13.7,  95.4,   50.6,  +28.9, +113.0,  +33.3,+1100.00,60
25/11/2011,00:51:58,   0.0,  5.0,  283,+13.7,  95.4,   50.5,  +29.0, +113.3,  +33.6,+1100.00,65
25/11/2011,00:52:16,   0.0,  5.0,  276,+13.7,  95.5,   50.9,  +29.1, +113.0,  +33.6,+1100.00,65
25/11/2011,00:52:33,   0.0,  6.8,  249,+13.8,  95.5,   51.0,  +29.3, +113.0,  +33.0,+1100.00,62
25/11/2011,00:52:51,   0.0,  5.2,  251,+13.7,  95.5,   50.9,  +29.3, +113.1,  +33.5,+1100.00,61
25/11/2011,00:53:17,   0.0,  4.7,  253,+13.8,  95.6,   51.3,  +29.4, +113.6,  +33.3,+1100.00,6B
25/11/2011,00:53:35,   0.0,  4.8,  258,+13.8,  95.7,   51.8,  +29.5, +113.4,  +33.3,+1100.00,76
25/11/2011,00:53:53,   0.0,  5.2,  259,+13.9,  95.7,   51.9,  +29.5, +113.3,  +33.1,+1100.00,71
25/11/2011,00:54:18,   0.0,  6.0,  273,+13.9,  95.8,   51.8,  +29.6, +113.4,  +33.1,+1100.00,70
25/11/2011,00:54:36,   0.0,  4.8,  280,+13.9,  95.7,   51.9,  +29.5, +113.5,  +33.5,+1100.00,78
25/11/2011,00:54:54,   0.0,  4.8,  257,+13.8,  95.7,   51.8,  +29.5, +113.1,  +33.0,+1100.00,71
25/11/2011,00:55:12,   0.0,  5.4,  254,+13.8,  95.6,   51.4,  +29.4, +113.3,  +33.2,+1100.00,64
25/11/2011,00:55:38,   0.0,  6.5,  255,+13.8,  95.6,   51.1,  +29.4, +113.9,  +33.2,+1100.00,72
25/11/2011,00:55:56,   0.0,  4.6,  252,+13.7,  95.5,   51.0,  +29.3, +113.5,  +33.4,+1100.00,68
25/11/2011,00:56:14,   0.0,  5.0,  263,+13.8,  95.6,   50.8,  +29.4, +113.6,  +33.2,+1100.00,69
25/11/2011,00:56:32,   0.0,  4.3,  278,+13.7,  95.6,   51.2,  +29.2, +113.0,  +33.2,+1100.00,63
25/11/2011,00:56:58,   0.0,  3.4,  259,+13.7,  95.6,   50.8,  +29.4, +113.5,  +33.5,+1100.00,79
25/11/2011,00:57:16,   0.0,  3.8,  246,+13.9,  95.6,   50.9,  +29.3, +113.6,  +33.5,+1100.00,77
25/11/2011,00:57:33,   0.0,  4.0,  279,+13.7,  95.6,   50.6,  +29.3, +113.3,  +33.1,+1100.00,69
25/11/2011,00:57:51,   0.0,  3.7,  284,+13.7,  95.5,   50.6,  +29.1, +113.4,  +33.2,+1100.00,6A
25/11/2011,00:58:17,   0.0,  3.4,  259,+13.8,  95.8,   52.4,  +29.7, +114.1,  +33.3,+1100.00,75
25/11/2011,00:58:35,   0.0,  3.5,  293,+13.9,  95.8,   52.3,  +29.8, +114.0,  +33.3,+1100.00,74
25/11/2011,00:58:53,   0.0,  4.3,  258,+13.8,  95.6,   51.8,  +29.8, +113.9,  +32.9,+1100.00,82
25/11/2011,00:59:18,   0.0,  4.3,  284,+13.8,  95.6,   51.4,  +29.4, +114.1,  +33.1,+1100.00,6D
25/11/2011,00:59:36,   0.0,  5.8,  257,+13.7,  95.6,   51.2,  +29.6, +113.3,  +33.2,+1100.00,74
25/11/2011,00:59:54,   0.0,  6.1,  251,+13.8,  95.7,   51.6,  +29.7, +114.2,  +32.8,+1100.00,74
25/11/2011,01:00:12,   0.0,  4.3,  262,+13.9,  95.9,   52.1,  +30.0, +114.6,  +33.2,+1100.00,52
25/11/2011,01:00:38,   0.0,  4.8,  269,+14.8,  96.7,   56.1,  +31.3, +115.7,  +32.9,+1100.00,75
25/11/2011,01:00:56,   0.0,  5.3,  256,+14.4,  96.8,   57.1,  +31.9, +116.6,  +32.3,+1100.00,6B
25/11/2011,01:01:14,   0.0,  5.2,  281,+14.4,  96.5,   56.0,  +31.4, +116.7,  +32.9,+1100.00,60
25/11/2011,01:01:32,   0.0,  3.2,  293,+14.6,  96.7,   56.1,  +31.5, +116.8,  +32.7,+1100.00,66
25/11/2011,01:01:58,   0.0,  2.6,  251,+14.2,  96.3,   54.0,  +31.1, +115.1,  +32.3,+1100.00,50
25/11/2011,01:02:16,   0.0,  6.0,  253,+14.0,  96.0,   53.2,  +31.0, +115.0,  +32.4,+1100.00,46
25/11/2011,01:02:33,   0.0,  4.3,  270,+14.0,  95.9,   52.5,  +30.2, +114.0,  +32.7,+1100.00,52
25/11/2011,01:02:51,   0.0,  5.2,  266,+13.8,  95.8,   51.8,  +29.7, +113.1,  +32.7,+1100.00,6C
25/11/2011,01:03:17,   0.0,  5.9,  239,+13.7,  95.7,   50.8,  +29.4, +113.0,  +32.7,+1100.00,6F
25/11/2011,01:03:35,   0.0,  5.4,  267,+13.7,  95.7,   50.7,  +29.3, +112.7,  +32.7,+1100.00,6F
25/11/2011,01:03:53,   0.0,  6.1,  252,+13.7,  95.8,   50.7,  +29.6, +112.6,  +32.8,+1100.00,6B
25/11/2011,01:04:18,   0.0,  4.2,  239,+13.6,  95.7,   50.3,  +29.1, +112.6,  +32.7,+1100.00,65
25/11/2011,01:04:36,   0.0,  4.5,  253,+13.6,  95.6,   50.5,  +29.0, +111.9,  +33.2,+1100.00,62
25/11/2011,01:04:54,   0.0,  7.0,  255,+13.5,  95.5,   50.0,  +29.0, +112.2,  +33.2,+1100.00,55
25/11/2011,01:05:12,   0.0,  6.7,  252,+13.5,  95.5,   49.7,  +28.9, +111.9,  +33.0,+1100.00,6E
25/11/2011,01:05:38,   0.0,  4.8,  263,+13.4,  95.5,   49.6,  +28.9, +112.3,  +33.2,+1100.00,72
25/11/2011,01:05:56,   0.0,  5.0,  237,+13.5,  95.4,   49.8,  +29.0, +111.9,  +33.1,+1100.00,6A
25/11/2011,01:06:14,   0.0,  4.8,  278,+13.5,  95.5,   49.8,  +29.0, +111.9,  +33.2,+1100.00,73
25/11/2011,01:06:32,   0.0,  5.9,  255,+13.4,  95.3,   49.6,  +29.0, +112.1,  +33.5,+1100.00,67
25/11/2011,01:06:58,   0.0,  6.2,  254,+13.5,  95.4,   49.8,  +28.8, +112.2,  +33.1,+1100.00,70
25/11/2011,01:07:16,   0.0,  2.7,  247,+13.4,  95.4,   49.7,  +29.0, +112.4,  +33.2,+1100.00,68
25/11/2011,01:07:33,   0.0,  6.0,  246,+13.5,  95.4,   49.5,  +29.1, +111.7,  +32.9,+1100.00,6B
25/11/2011,01:07:51,   0.0,  5.1,  253,+13.5,  95.4,   49.5,  +29.0, +111.5,  +33.2,+1100.00,60
25/11/2011,01:08:17,   0.0,  6.5,  251,+13.4,  95.4,   49.6,  +28.9, +111.5,  +32.9,+1100.00,74
25/11/2011,01:08:35,   0.0,  5.7,  249,+13.4,  95.3,   49.6,  +28.9, +111.4,  +33.0,+1100.00,72
25/11/2011,01:08:53,   0.0,  5.1,  260,+13.4,  95.2,   49.6,  +28.8, +111.5,  +33.1,+1100.00,65
25/11/2011,01:09:18,   0.0,  5.5,  253,+13.4,  95.2,   49.8,  +29.0, +111.4,  +33.1,+1100.00,67
25/11/2011,01:09:36,   0.0,  5.1,  270,+13.6,  95.3,   50.7,  +29.2, +111.6,  +32.8,+1100.00,66
25/11/2011,01:09:54,   0.0,  5.0,  246,+13.6,  95.3,   51.2,  +29.3, +112.2,  +32.7,+1100.00,61
25/11/2011,01:10:12,   0.0,  5.1,  250,+13.7,  95.4,   51.5,  +29.5, +112.1,  +32.4,+1100.00,52
25/11/2011,01:10:38,   0.0,  3.8,  272,+13.7,  95.5,   52.0,  +29.8, +112.4,  +32.4,+1100.00,66
25/11/2011,01:10:56,   0.0,  4.1,  247,+13.8,  95.6,   52.6,  +29.8, +112.9,  +32.4,+1100.00,6F
25/11/2011,01:11:14,   0.0,  4.2,  252,+14.0,  95.8,   54.2,  +30.3, +113.2,  +32.1,+1100.00,4A
25/11/2011,01:11:32,   0.0,  4.8,  250,+14.3,  96.1,   56.7,  +31.1, +114.0,  +31.7,+1100.00,55
25/11/2011,01:11:58,   0.0,  3.8,  262,+14.9,  96.8,   61.8,  +32.6, +115.9,  +31.0,+1100.00,72
25/11/2011,01:12:16,   0.0,  7.7,  267,+15.6,  97.6,   67.1,  +34.2, +117.4,  +29.8,+1100.00,7B
25/11/2011,01:12:33,   0.0,  5.5,  271,+15.9,  98.0,   69.7,  +35.4, +118.5,  +29.6,+1100.00,7A
25/11/2011,01:12:51,   0.0,  5.3,  297,+16.3,  98.4,   72.6,  +36.2, +119.6,  +29.0,+1100.00,73
25/11/2011,01:13:17,   0.0,  5.0,  278,+16.5,  98.6,   74.0,  +36.7, +120.3,  +28.8,+1100.00,73
25/11/2011,01:13:35,   0.0,  6.9,  261,+16.5,  98.6,   74.8,  +37.0, +120.5,  +28.4,+1100.00,75
25/11/2011,01:13:52,   0.0,  5.4,  274,+16.5,  98.4,   74.8,  +36.9, +120.5,  +28.5,+1100.00,79
25/11/2011,01:14:18,   0.0,  4.4,  270,+16.4,  98.3,   73.6,  +36.9, +120.3,  +29.2,+1100.00,6E
25/11/2011,01:14:36,   0.0,  6.1,  302,+16.4,  98.1,   73.3,  +36.5, +120.3,  +29.1,+1100.00,5F
25/11/2011,01:14:54,   0.0,  4.2,  254,+16.1,  97.6,   71.9,  +36.1, +119.9,  +28.8,+1100.00,79
25/11/2011,01:15:12,   0.0,  5.7,  267,+16.1,  97.5,   70.6,  +35.6, +119.2,  +29.2,+1100.00,71
25/11/2011,01:15:38,   0.0,  5.4,  274,+15.8,  96.9,   68.5,  +35.0, +118.6,  +29.6,+1100.00,84
25/11/2011,01:15:56,   0.0,  5.9,  266,+15.6,  96.7,   67.5,  +34.8, +118.4,  +29.7,+1100.00,8B
25/11/2011,01:16:14,   0.0,  7.2,  267,+15.6,  96.5,   66.8,  +34.5, +117.7,  +29.5,+1100.00,7F
25/11/2011,01:16:32,   0.0,  4.6,  286,+15.5,  96.3,   66.4,  +34.5, +117.3,  +29.9,+1100.00,7A
25/11/2011,01:16:58,   0.0,  4.4,  271,+15.4,  96.1,   65.8,  +34.0, +117.7,  +30.5,+1100.00,6D
25/11/2011,01:17:16,   0.0,  6.2,  284,+15.3,  95.9,   64.8,  +33.5, +116.9,  +30.4,+1100.00,75
25/11/2011,01:17:33,   0.0,  4.9,  265,+15.2,  95.7,   63.7,  +33.4, +116.7,  +29.9,+1100.00,7D
25/11/2011,01:17:51,   0.0,  3.8,  264,+15.1,  95.7,   63.4,  +33.4, +116.6,  +30.4,+1100.00,68
25/11/2011,01:18:17,   0.0,  4.6,  267,+15.1,  95.6,   62.7,  +33.0, +116.1,  +30.6,+1100.00,67
25/11/2011,01:18:35,   0.0,  4.9,  260,+14.9,  95.4,   61.9,  +32.7, +115.8,  +30.7,+1100.00,76
25/11/2011,01:18:52,   0.0,  5.5,  258,+14.9,  95.3,   61.2,  +32.5, +115.5,  +31.1,+1100.00,67
25/11/2011,01:19:18,   0.0,  5.3,  262,+14.8,  95.2,   60.6,  +32.4, +115.5,  +31.3,+1100.00,65
25/11/2011,01:19:36,   0.0,  4.6,  275,+14.8,  95.1,   60.2,  +32.1, +115.1,  +31.1,+1100.00,5D
25/11/2011,01:19:54,   0.0,  2.6,  263,+14.7,  95.0,   59.7,  +31.9, +114.7,  +31.2,+1100.00,70
25/11/2011,01:20:12,   0.0,  3.3,  259,+14.6,  95.0,   59.2,  +31.9, +114.7,  +31.4,+1100.00,61
25/11/2011,01:20:38,   0.0,  6.0,  267,+14.6,  94.9,   58.7,  +31.4, +114.7,  +31.6,+1100.00,71
25/11/2011,01:20:56,   0.0,  5.3,  253,+14.6,  94.9,   58.4,  +31.6, +114.8,  +31.4,+1100.00,6C
25/11/2011,01:21:14,   0.0,  8.3,  263,+14.4,  94.8,   57.9,  +31.3, +114.1,  +31.6,+1100.00,64
25/11/2011,01:21:32,   0.0,  4.5,  276,+14.5,  94.8,   57.5,  +31.3, +113.6,  +31.9,+1100.00,6A
25/11/2011,01:21:58,   0.0,  5.2,  252,+14.5,  94.8,   57.1,  +31.0, +114.0,  +31.6,+1100.00,5B
25/11/2011,01:22:16,   0.0,  9.2,  258,+14.3,  94.7,   57.2,  +31.0, +113.8,  +31.6,+1100.00,65